Tracking 30074 objects as of 13-Jan-2025
HD Live streaming from Space Station
objects crossing your sky now

COSMOS 342

Track COSMOS 342 now!
10-day predictions
COSMOS 342 is classified as:


NORAD ID: 4389
Int'l Code: 1970-036G
Perigee: 1,317.0 km
Apogee: 1,474.8 km
Inclination: 74.0 °
Period: 113.5 minutes
Semi major axis: 7766 km
RCS: 0.743 m2 (medium)
Launch date: April 25, 1970
Source: Commonwealth of Independent States (former USSR) (CIS)
Launch site: PLESETSK MISSILE AND SPACE COMPLEX (PKMTR)
Your satellite tracking list
Your tracking list is empty




NASA's NSSDC Master Catalog

Two Line Element Set (TLE):
1 04389U 70036G   25012.43066714  .00000006  00000-0  11523-3 0  9992
2 04389  74.0299   6.9712 0101591 342.0896 172.5858 12.68325312533090
Source of the keplerian elements: AFSPC